FW2907 Weather Reports


Display with metric or nautical units.
time (UTC)temp
F
wind
direction
speed
MPH
gust
MPH
rain 1hr
in
rain 24hr
in
rain mn
in
humidity
%
barometer
mb
20210922180834 68 274 3.0 7.0 0.00 0.00 0.01 73 999.7
20210922180334 68 291 3.0 7.0 0.00 0.00 0.01 74 999.6
20210922175832 68 275 3.0 7.0 0.00 0.00 0.01 75 999.7
20210922175332 67 301 2.0 5.0 0.00 0.00 0.01 75 999.6
20210922174826 67 296 2.0 7.0 0.00 0.00 0.01 76 999.8
20210922174326 67 320 3.0 7.0 0.00 0.00 0.01 78 999.8
20210922173825 67 258 2.0 6.0 0.00 0.00 0.01 79 999.9
20210922173324 66 222 2.0 5.0 0.00 0.00 0.01 79 999.9
20210922172822 66 94 2.0 5.0 0.00 0.00 0.01 81 999.8
20210922172320 66 307 2.0 4.0 0.00 0.00 0.01 83 999.8
20210922171820 65 17 2.0 6.0 0.00 0.00 0.01 85 999.8
20210922171317 65 49 2.0 7.0 0.00 0.00 0.01 82 999.8
20210922170813 65 320 2.0 7.0 0.00 0.00 0.01 82 999.8
20210922170310 65 296 2.0 7.0 0.00 0.00 0.01 83 999.8
20210922165809 65 236 2.0 6.0 0.00 0.00 0.01 83 999.7
20210922165310 65 257 2.0 6.0 0.00 0.00 0.01 85 999.7
20210922164811 65 55 2.0 4.0 0.00 0.00 0.01 87 999.7
20210922164310 64 280 2.0 5.0 0.00 0.00 0.01 86 999.7
20210922163809 64 284 2.0 5.0 0.00 0.00 0.01 87 999.8
20210922163300 64 333 3.0 12.0 0.00 0.00 0.01 86 999.9
20210922162749 64 55 4.0 12.0 0.00 0.00 0.01 87 999.8
20210922162236 64 302 2.0 6.0 0.00 0.00 0.01 87 999.9
20210922161734 64 293 3.0 10.0 0.00 0.00 0.01 88 999.8
20210922161226 64 5 3.0 10.0 0.00 0.00 0.01 88 999.9
20210922160721 63 304 3.0 7.0 0.00 0.00 0.01 88 1000.0
20210922160222 64 302 3.0 11.0 0.00 0.00 0.01 90 1000.0
20210922155722 63 53 3.0 11.0 0.00 0.00 0.01 90 1000.0
20210922155220 63 240 2.0 7.0 0.00 0.00 0.01 91 1000.1
20210922154712 62 316 2.0 7.0 0.00 0.00 0.01 93 1000.3
20210922154210 62 321 2.0 7.0 0.00 0.00 0.01 93 1000.4
20210922153705 62 340 2.0 5.0 0.00 0.00 0.01 93 1000.4
20210922153201 62 350 2.0 3.0 0.00 0.00 0.01 94 1000.5
20210922152702 62 283 2.0 3.0 0.00 0.00 0.01 93 1000.4
20210922152158 62 322 1.0 3.0 0.00 0.00 0.01 93 1000.4
20210922151647 62 315 1.0 3.0 0.00 0.00 0.01 94 1000.2
20210922151132 62 49 2.0 3.0 0.00 0.00 0.01 95 1000.1
20210922150628 61 49 2.0 4.0 0.00 0.00 0.01 95 1000.1
20210922150124 61 34 1.0 4.0 0.00 0.00 0.01 96 1000.1
20210922145619 61 30 1.0 4.0 0.00 0.00 0.01 96 1000.3
20210922145118 61 40 1.0 4.0 0.00 0.00 0.01 96 1000.2
20210922144618 61 49 0.0 2.0 0.00 0.00 0.01 96 1000.1
20210922144118 61 53 0.0 1.0 0.00 0.00 0.01 96 1000.0
20210922143612 60 53 0.0 1.0 0.00 0.00 0.01 96 1000.1
20210922143108 60 53 0.0 3.0 0.00 0.00 0.01 96 1000.1
20210922142558 60 53 1.0 3.0 0.00 0.00 0.01 96 1000.0
20210922142057 60 285 1.0 2.0 0.00 0.00 0.01 96 1000.1
20210922141557 60 90 0.0 2.0 0.00 0.00 0.01 96 1000.0
20210922141052 60 90 0.0 2.0 0.00 0.00 0.01 96 1000.1
20210922140539 60 90 0.0 1.0 0.00 0.00 0.01 96 999.8
20210922140027 60 90 0.0 1.0 0.00 0.00 0.01 96 1000.1
20210922135521 60 90 0.0 2.0 0.00 0.00 0.01 96 999.8
20210922135005 60 90 0.0 2.0 0.00 0.00 0.01 96 999.6
20210922134500 60 46 1.0 3.0 0.00 0.00 0.01 96 999.5
20210922133940 60 46 2.0 6.0 0.00 0.00 0.01 96 999.5
20210922133427 60 17 4.0 6.0 0.00 0.00 0.01 96 999.1
20210922132925 60 30 3.0 6.0 0.00 0.00 0.01 96 999.3
20210922132422 60 34 2.0 5.0 0.00 0.00 0.01 95 999.6
20210922131916 60 47 1.0 3.0 0.00 0.00 0.01 95 999.9
20210922131340 60 47 0.0 2.0 0.00 0.00 0.01 95 1000.2
20210922130835 60 47 0.0 1.0 0.00 0.00 0.01 95 1000.5
20210922130316 60 47 0.0 1.0 0.00 0.00 0.01 95 1000.4
20210922125816 60 47 0.0 3.0 0.00 0.00 0.01 95 1000.4
20210922125256 60 47 1.0 4.0 0.00 0.00 0.01 94 1000.2
20210922124758 60 42 1.0 4.0 0.00 0.00 0.01 94 1000.3
20210922124243 61 20 1.0 4.0 0.00 0.00 0.01 94 1000.2
20210922123743 61 70 1.0 3.0 0.00 0.00 0.01 93 1000.5
20210922123243 61 19 1.0 2.0 0.00 0.00 0.01 93 1000.5
20210922122744 61 19 1.0 3.0 0.00 0.00 0.01 93 1000.3
20210922122239 61 19 2.0 5.0 0.00 0.00 0.01 92 1000.2
20210922121724 61 24 2.0 5.0 0.00 0.00 0.01 92 1000.0
20210922121218 61 338 3.0 7.0 0.00 0.00 0.01 92 1000.2
20210922120718 61 0 4.0 10.0 0.00 0.00 0.01 92 999.6
20210922120159 61 32 5.0 10.0 0.00 0.00 0.01 91 999.4
20210922115659 61 17 6.0 12.0 0.00 0.00 0.01 91 999.1
20210922115159 61 42 5.0 12.0 0.00 0.00 0.01 91 999.1
20210922114659 61 29 3.0 11.0 0.00 0.00 0.01 92 999.4
20210922114154 61 336 3.0 9.0 0.00 0.00 0.01 92 999.4
20210922113646 61 39 4.0 9.0 0.00 0.00 0.01 92 999.2
20210922113143 61 0.0 0.0 0.00 0.00 0.01 92 999.0